Home   Weather   Kigali   Past weeks
Flag for Rwanda

Past Weather in Kigali, Rwanda — Yesterday and Last 2 Weeks

Now
73 °F

Broken clouds.


Feels Like: 75 °F
Forecast: 73 / 63 °F
Wind: 6 mph from Southwest

Location: Kigali Airport

Current Time: May 22, 2019 at 11:44:52 am

Latest Report: May 22, 2019 at 11:00 am


Visibility: N/A

Pressure: 30.18 "Hg (25.22 "Hg at 1555m altitude)

Humidity: 74%

Dew Point: 64 °F

Location of KigaliLocation

Past Weather in Kigali — Graph

°F

Kigali Temperature Yesterday

Maximum temperature yesterday: 81 °F (at 3:00 pm)
Minimum temperature yesterday: 64 °F (at 12:30 am)
Average temperature yesterday: 71 °F

High & Low Weather Summary for the Past Weeks

 TemperatureHumidityPressure
High81 °F (May 9, 2:30 pm)100% (May 10, 8:00 am)30.24 "Hg (May 10, 8:00 am)
Low59 °F (May 20, 4:30 am)51% (May 8, 3:30 pm)30.01 "Hg (May 9, 3:30 pm)
Average69 °F82%30.12 "Hg
* Reported May 7 10:00 am — May 22 10:00 am, Kigali. Weather by CustomWeather, © 2019

Note: Actual official high and low records may vary slightly from our data, if they occured in-between our weather recording intervals... More about our weather records

Advertising

Kigali Weather History for the Previous 24 Hours

Scroll right to see more
 ConditionsComfort  
Time TempWeatherWind HumidityBarometerVisibility
10:00 am
Wed, May 22
72 °FScattered clouds.2 mph78%30.18 "HgN/A
9:00 am66 °FBroken clouds.2 mph94%30.18 "HgN/A
8:30 am64 °FBroken clouds.2 mph94%30.18 "Hg4 mi
8:00 am63 °FBroken clouds.3 mph100%30.18 "Hg4 mi
7:00 am61 °FBroken clouds.No wind100%30.15 "Hg4 mi
5:00 am61 °FPartly cloudy.2 mph100%30.12 "HgN/A
4:00 am61 °FPassing clouds.6 mph100%30.12 "Hg6 mi
3:00 am63 °FPassing clouds.2 mph94%30.09 "HgN/A
5:00 pm
Tue, May 21
68 °FBroken clouds.3 mph83%30.09 "HgN/A
4:00 pm66 °FThunderstorms. Partly sunny.8 mph83%30.09 "HgN/A
3:00 pm81 °FScattered clouds.7 mph54%30.07 "HgN/A
2:00 pm77 °FScattered clouds.6 mph54%30.09 "HgN/A
1:00 pm77 °FPartly sunny.5 mph65%30.15 "HgN/A
12:00 pm75 °FPartly sunny.5 mph69%30.18 "HgN/A
11:30 am77 °FPartly sunny.7 mph65%30.18 "HgN/A
11:00 am75 °FScattered clouds.6 mph69%30.21 "HgN/A
Weather by CustomWeather, © 2019

See weather overview